FW0323 Weather Reports


Display with metric or nautical units.
time (UTC)temp
F
wind
direction
speed
MPH
gust
MPH
rain 1hr
in
rain 24hr
in
rain mn
in
humidity
%
barometer
mb
20260903034535 59 131 0.0 1.0 0.00 0.00 0.00 94 1023.1
20260903033033 59 132 0.0 1.0 0.00 0.00 0.00 93 1023.2
20260903031543 59 130 0.0 1.0 0.00 0.00 0.00 93 1023.4
20260903030033 59 108 0.0 1.0 0.00 0.00 0.00 93 1023.3
20260903024531 59 126 0.0 1.0 0.00 0.00 0.00 93 1023.3
20260903023035 59 122 0.0 4.0 0.00 0.00 0.00 92 1023.5
20260903021530 59 113 0.0 2.0 0.00 0.00 0.00 92 1023.8
20260903020038 59 163 0.0 2.0 0.00 0.00 0.00 93 1023.5
20260903014630 59 124 0.0 2.0 0.00 0.00 0.00 92 1023.5
20260903013029 59 125 0.0 3.0 0.00 0.00 0.00 92 1023.6
20260903011527 59 146 1.0 3.0 0.00 0.00 0.00 93 1023.5
20260903010026 59 98 0.0 2.0 0.00 0.00 0.00 93 1023.9
20260903004526 59 140 0.0 3.0 0.00 0.00 0.00 93 1023.4
20260903003026 59 133 0.0 3.0 0.00 0.00 0.00 92 1023.5
20260903001525 59 139 0.0 3.0 0.00 0.00 0.00 92 1023.5
20260903000027 60 96 0.0 2.0 0.00 0.00 0.00 90 1023.6
20260902234523 60 177 0.0 1.0 0.00 0.00 0.00 88 1023.9
20260902233022 61 131 0.0 3.0 0.00 0.00 0.00 85 1024.1
20260902231524 62 69 0.0 4.0 0.00 0.00 0.00 84 1024.0
20260902230022 62 139 0.0 6.0 0.00 0.00 0.00 81 1024.1
20260902224521 63 162 0.0 5.0 0.00 0.00 0.00 78 1024.3
20260902223035 64 130 0.0 3.0 0.00 0.00 0.00 76 1024.7
20260902221521 64 155 1.0 4.0 0.00 0.00 0.00 76 1024.7
20260902220020 65 84 0.0 3.0 0.00 0.00 0.00 75 1024.3
20260902214518 65 143 0.0 3.0 0.00 0.00 0.00 76 1024.4
20260902213019 65 127 0.0 4.0 0.00 0.00 0.00 76 1024.5
20260902211519 66 136 0.0 3.0 0.00 0.00 0.00 75 1024.5
20260902210017 66 103 0.0 2.0 0.00 0.00 0.00 74 1024.9
20260902204531 67 137 0.0 1.0 0.00 0.00 0.00 72 1024.9
20260902203016 67 148 1.0 5.0 0.00 0.00 0.00 69 1024.8
20260902201517 67 153 0.0 3.0 0.00 0.00 0.00 69 1024.8
20260902200015 68 99 0.0 3.0 0.00 0.00 0.00 70 1025.0
20260902194514 68 167 1.0 4.0 0.00 0.00 0.00 68 1025.3
20260902193014 68 142 1.0 4.0 0.00 0.00 0.00 68 1025.3
20260902191513 69 110 0.0 3.0 0.00 0.00 0.00 68 1025.4
20260902190013 68 121 1.0 5.0 0.00 0.00 0.00 67 1025.6
20260902184511 69 110 0.0 3.0 0.00 0.00 0.00 65 1025.7
20260902183032 69 137 1.0 3.0 0.00 0.00 0.00 65 1025.4
20260902181511 69 139 1.0 5.0 0.00 0.00 0.00 68 1025.5
20260902180010 69 207 0.0 7.0 0.00 0.00 0.00 68 1025.7
20260902174513 69 118 1.0 6.0 0.00 0.00 0.00 67 1025.4
20260902173018 70 169 1.0 7.0 0.00 0.00 0.00 65 1025.4
20260902171509 70 126 0.0 9.0 0.00 0.00 0.00 64 1025.2
20260902170009 71 53 2.0 5.0 0.00 0.00 0.00 61 1025.1
20260902164507 71 142 1.0 3.0 0.00 0.00 0.00 59 1025.3
20260902163008 71 165 1.0 4.0 0.00 0.00 0.00 59 1025.9
20260902161507 71 157 0.0 3.0 0.00 0.00 0.00 62 1026.0
20260902160009 72 118 0.0 4.0 0.00 0.00 0.00 57 1026.1
20260902154506 72 139 1.0 6.0 0.00 0.00 0.00 56 1026.1
20260902153108 71 129 0.0 6.0 0.00 0.00 0.00 61 1026.0
20260902151558 69 349 0.0 3.0 0.00 0.00 0.00 65 1026.1
20260902150055 69 120 0.0 3.0 0.00 0.00 0.00 64 1026.0
20260902144552 68 81 0.0 3.0 0.00 0.00 0.00 66 1026.2
20260902143054 68 25 0.0 2.0 0.00 0.00 0.00 71 1026.0
20260902141550 68 70 0.0 2.0 0.00 0.00 0.00 74 1026.1
20260902140052 68 51 0.0 3.0 0.00 0.00 0.00 74 1025.8
20260902134548 67 25 1.0 4.0 0.00 0.00 0.00 80 1025.7
20260902133047 67 104 0.0 5.0 0.00 0.00 0.00 78 1026.0
20260902131542 66 114 0.0 2.0 0.00 0.00 0.00 83 1026.0
20260902130040 65 356 0.0 2.0 0.00 0.00 0.00 85 1025.9
20260902124537 64 167 0.0 2.0 0.00 0.00 0.00 85 1026.0
20260902123036 64 176 1.0 3.0 0.00 0.00 0.00 87 1025.9
20260902121533 63 153 0.0 2.0 0.00 0.00 0.00 89 1026.1
20260902120032 61 297 0.0 1.0 0.00 0.00 0.00 93 1026.1
20260902114530 61 292 0.0 0.0 0.00 0.00 0.00 94 1026.2
20260902113028 61 292 0.0 1.0 0.00 0.00 0.00 95 1026.0
20260902111528 60 293 0.0 1.0 0.00 0.00 0.00 95 1026.0
20260902110037 60 148 0.0 0.0 0.00 0.00 0.00 95 1025.8
20260902104541 60 148 0.0 0.0 0.00 0.00 0.00 95 1025.6
20260902103041 60 156 0.0 0.0 0.00 0.00 0.00 95 1025.5
20260902101522 60 156 0.0 1.0 0.00 0.00 0.00 95 1025.6
20260902100022 60 139 0.0 1.0 0.00 0.00 0.00 95 1025.4
20260902094521 60 127 0.0 1.0 0.00 0.00 0.00 95 1025.4
20260902093021 60 6 0.0 1.0 0.00 0.00 0.00 95 1025.3
20260902091519 60 244 0.0 1.0 0.00 0.00 0.00 95 1025.3
20260902090026 60 244 0.0 1.0 0.00 0.00 0.00 95 1025.3
20260902084521 60 244 0.0 1.0 0.00 0.00 0.00 95 1025.3
20260902083015 60 244 0.0 0.0 0.00 0.00 0.00 95 1025.3
20260902081515 60 244 0.0 0.0 0.00 0.00 0.00 95 1025.2
20260902080019 60 244 0.0 1.0 0.00 0.00 0.00 95 1025.1
20260902074512 60 244 0.0 0.0 0.00 0.00 0.00 95 1024.9
20260902073011 60 244 0.0 1.0 0.00 0.00 0.00 95 1024.8
20260902071510 60 244 0.0 1.0 0.00 0.00 0.00 95 1024.8
20260902070009 60 244 0.0 1.0 0.00 0.00 0.00 95 1024.6
20260902064510 61 155 0.0 1.0 0.00 0.00 0.00 95 1024.6
20260902063023 61 141 0.0 1.0 0.00 0.00 0.00 95 1024.7
20260902061506 61 141 0.0 1.0 0.00 0.00 0.00 95 1024.6
20260902060005 61 140 0.0 1.0 0.00 0.00 0.00 95 1024.6
20260902054504 61 140 0.0 1.0 0.00 0.00 0.00 95 1024.4
20260902053005 61 139 0.0 0.0 0.00 0.00 0.00 95 1024.2
20260902051614 61 140 0.0 1.0 0.00 0.00 0.00 95 1023.8
20260902050059 61 184 0.0 0.0 0.00 0.00 0.00 95 1023.8
20260902044619 62 189 0.0 0.0 0.00 0.00 0.00 95 1023.5
20260902043056 62 143 0.0 1.0 0.00 0.00 0.00 95 1023.6
20260902041556 62 143 0.0 1.0 0.00 0.00 0.00 95 1023.6
20260902040054 62 144 0.0 0.0 0.00 0.00 0.00 94 1023.6